Home   Weather   Hugo   Past weeks
Flag for USA

Past Weather in Hugo, Minnesota, USA — Yesterday and Last 2 Weeks

Now
84 °F

More clouds than sun.


Feels Like: 90 °F
Forecast: 85 / 70 °F
Wind: 6 mph from North

Location: Minneapolis / Blaine

Current Time: Jul 16, 2019 at 3:36:08 pm

Latest Report: Jul 16, 2019 at 2:45 pm


Visibility: 10 mi

Pressure: 29.88 "Hg

Humidity: 66%

Dew Point: 72 °F

Location of HugoLocation

Past Weather in Hugo — Graph

°F

Hugo Temperature Yesterday

Maximum temperature yesterday: 93 °F (at 3:45 pm)
Minimum temperature yesterday: 72 °F (at 12:19 am)
Average temperature yesterday: 77 °F

High & Low Weather Summary for the Past Weeks

 TemperatureHumidityPressure
High93 °F (Jul 15, 3:45 pm)100% (Jul 1, 8:45 pm)30.17 "Hg (Jul 1, 8:45 pm)
Low61 °F (Jul 7, 5:18 am)34% (Jul 11, 4:45 pm)29.74 "Hg (Jul 9, 5:53 pm)
Average73 °F79%29.95 "Hg
* Reported Jul 1 1:50 pm — Jul 16 1:45 pm, Hugo. Weather by CustomWeather, © 2019

Note: Actual official high and low records may vary slightly from our data, if they occured in-between our weather recording intervals... More about our weather records

Advertising

Hugo Weather History for the Previous 24 Hours

Scroll right to see more
 ConditionsComfort  
Time TempWeatherWind HumidityBarometerVisibility
1:45 pm
Tue, Jul 16
84 °FMore clouds than sun.6 mph66%29.88 "Hg10 mi
12:45 pm82 °FMore clouds than sun.5 mph70%29.88 "Hg10 mi
11:45 am82 °FMore clouds than sun.No wind74%29.88 "Hg10 mi
10:45 am81 °FBroken clouds.5 mph79%29.87 "Hg10 mi
9:45 am79 °FPartly sunny.6 mph79%29.87 "Hg10 mi
8:45 am75 °FPartly sunny.5 mph83%29.87 "Hg10 mi
7:45 am73 °FScattered clouds.5 mph89%29.86 "Hg10 mi
6:58 am72 °FScattered clouds.No wind94%29.85 "Hg10 mi
6:36 am72 °FSunny.No wind94%29.85 "Hg10 mi
5:58 am70 °FSunny.No wind94%29.85 "Hg10 mi
5:35 am72 °FClear.No wind88%29.84 "Hg10 mi
5:16 am72 °FClear.5 mph94%29.85 "Hg10 mi
4:56 am72 °FClear.6 mph94%29.85 "Hg10 mi
4:37 am70 °FClear.5 mph94%29.84 "Hg10 mi
4:15 am70 °FPassing clouds.No wind100%29.84 "Hg10 mi
3:56 am72 °FPassing clouds.No wind94%29.84 "Hg10 mi
3:36 am72 °FPartly cloudy.No wind94%29.83 "Hg10 mi
3:17 am70 °FLight rain. Passing clouds.No wind100%29.84 "Hg10 mi
2:59 am70 °FClear.No wind100%29.84 "Hg10 mi
2:36 am70 °FClear.No wind100%29.85 "Hg10 mi
2:15 am70 °FClear.3 mph94%29.84 "Hg10 mi
1:55 am70 °FClear.5 mph100%29.84 "Hg10 mi
1:37 am72 °FClear.5 mph94%29.84 "Hg10 mi
1:20 am70 °FClear.5 mph100%29.84 "Hg10 mi
12:56 am70 °FClear.6 mph100%29.83 "Hg10 mi
12:36 am70 °FClear.5 mph100%29.83 "Hg10 mi
12:16 am72 °FClear.3 mph94%29.83 "Hg10 mi
11:55 pm
Mon, Jul 15
72 °FClear.3 mph94%29.84 "Hg10 mi
11:36 pm72 °FClear.No wind100%29.84 "Hg10 mi
11:16 pm72 °FClear.3 mph94%29.84 "Hg10 mi
10:57 pm72 °FClear.3 mph94%29.83 "Hg10 mi
10:38 pm72 °FClear.6 mph100%29.85 "Hg10 mi
10:16 pm72 °FPassing clouds.No wind100%29.83 "Hg10 mi
8:45 pm75 °FBroken clouds.8 mph89%29.77 "Hg10 mi
7:45 pm73 °FLight rain. Broken clouds.13 mph94%29.76 "Hg10 mi
6:45 pm72 °FLight rain. Fog.9 mph100%29.86 "Hg3 mi
6:14 pm72 °FLight rain. Cloudy.10 mph94%29.80 "Hg4 mi
5:45 pm73 °FThunderstorms. Cloudy.25 mph94%29.83 "Hg2 mi
5:27 pm79 °FThunderstorms. Cloudy.25 mph74%29.80 "Hg3 mi
4:48 pm90 °FScattered showers. Partly sunny.13 mph55%29.76 "Hg10 mi
3:45 pm93 °FPartly sunny.16 mph53%29.79 "Hg10 mi
Weather by CustomWeather, © 2019

See weather overview

LIVE PARTIAL LUNAR ECLIPSE – Watch the eclipse as it happens